Погода в Каагуасу

Парагвай     25°27′34″S   56°00′49″W
темп.,
°C
ветер,
м/с
пор.,
м/с
влажн.,
%
обл.,
%
осадки,
мм/ч
давл.,
гПа
погр.,
м
1 марта, пн
пн100:00+23вюв311690 0.0 1009375
03:00+22в27770 0.0 1008208
06:00+20всв38860 0.0 1009243
09:00+25св37750 0.0 1010453
12:00+27св34850 2.1 1010576
15:00+31св22490 3.7 10061396
18:00+29в23601 0.6 1005692
21:00+24всв22831 0.6 100755
2 марта, вт
вт200:00+23всв27850 0.0 1009194
03:00+22св310910 0.0 1009332
06:00+21св28950 0.0 1010268
09:00+24св36890 0.9 1011351
12:00+27с358136 5.8 1011870
15:00+33св234725 7.3 10071444
18:00+30в24581 0.0 1007345
21:00+25всв25720 0.4 1009105
3 марта, ср
ср300:00+23св310853 0.1 1011278
03:00+21всв269722 1.3 1010198
06:00+21св39983 1.6 1011259
09:00+24св37897 1.9 1013365
12:00+30ссв346010 4.7 10111054
15:00+34ссв22445 4.9 10091744
18:00+31св246110 0.0 1007386
21:00+25всв38815 1.7 1010210
4 марта, чт
чт400:00+21всв289862 3.6 1011250
03:00+21св2119781 3.6 1010396
06:00+21св31097100 0.0 1010391
09:00+24ссв378696 0.0 1012475
12:00+30с3559100 0.3 10111286
15:00+28сз2384100 3.8 1008596
18:00+24с2495100 4.9 1006134
21:00+23юз2497100 6.6 1008141
5 марта, пт
пт500:00+21юв2699100 0.9 1008206
03:00+21в01100100 3.3 100691
06:00+21ююв0099100 7.3 100577
09:00+24зсз2595100 9.5 1007252
12:00+23зюз369099 2.4 1007645
15:00+26з358565 4.6 1005734
18:00+24зюз13940 4.0 1003406
21:00+21ююв11970 5.0 100524